Location: Sevilla
(37.3933°N, 5.9839°W)
Time: 04:29:02
(UTC+02:00)

Vanguard 3 - Pass Details

Date: 28 June 2024
Orbit: 508 x 3231 km, 33.4° (Epoch: 15 July)

Event Time Altitude Azimuth Distance (km) Brightness Sun altitude
Rises 10:16:47 0° 251° (WSW) 6,681 11.3 35.1°
Reaches altitude 10° 10:21:49 10° 249° (WSW) 5,332 10.9 36.1°
Maximum altitude 10:36:02 66° 172° (S) 1,854 9.6 38.9°
Drops below altitude 10° 10:43:56 10° 92° (E) 3,099 11.3 40.5°
Sets 10:46:07 0° 89° (E) 3,801 11.5 40.9°
